User: anonymous   Login
Location: Unspecified
(0.0000°N, 0.0000°E)
Time: 12:49:10
(UTC+00:00)
Language:

USA 184 - Orbit

View from above orbital plane
View from above orbital plane
View from above satellite
View from above satellite

Ground track
Ground track

The orbit data is extracted from the following two-line orbital elements,

1 29249U 06027A   20265.44530787 0.00000000  00000-0  00000-0 0    07
2 29249  62.9953 145.7190 6865265 270.7787  17.7470  2.00606278    02
Epoch (UTC): 21 September 2020 10:41:14
Eccentricity: 0.6865265
inclination: 62.9953°
perigee height: 1946 km
apogee height: 38410 km
right ascension of ascending node: 145.7190°
argument of perigee: 270.7787°
revolutions per day: 2.00606278
mean anomaly at epoch: 17.7470°
orbit number at epoch: 0

The dashed part of the orbit path shows where the satellite is in the earth's shadow,  

DLR